2024/02/12 00:00:00, 0.0,-0.0
2024/02/12 00:10:00,---,-0.1
2024/02/12 00:20:00, 0.0,-0.1
2024/02/12 00:30:00, 0.0,-0.1
2024/02/12 00:40:00, 0.0,-0.1
2024/02/12 00:50:00, 0.0,-0.0
2024/02/12 01:00:00, 0.0, 0.1
2024/02/12 01:10:00, 0.0,-0.1
2024/02/12 01:20:00, 0.0,-0.1
2024/02/12 01:30:00, 0.0,-0.2
2024/02/12 01:40:00, 0.0,-0.3
2024/02/12 01:50:00, 0.0,-0.4
2024/02/12 02:00:00, 0.0,-0.0
2024/02/12 02:10:00, 0.0,-0.3
2024/02/12 02:20:00, 0.0,-0.3
2024/02/12 02:30:00, 0.0,-0.3
2024/02/12 02:40:00, 0.0,-0.3
2024/02/12 02:50:00, 0.0,-0.2
2024/02/12 03:00:00, 0.0,-0.2
2024/02/12 03:10:00,---,-0.5
2024/02/12 03:20:00, 0.0,-0.1
2024/02/12 03:30:00, 0.0,-0.2
2024/02/12 03:40:00, 0.0, 0.1
2024/02/12 03:50:00, 0.0,-0.1
2024/02/12 04:00:00,10.7,-0.5
2024/02/12 04:10:00,10.6,-0.2
2024/02/12 04:20:00, 0.0,-0.2
2024/02/12 04:30:00, 0.0,-0.2
2024/02/12 04:40:00, 0.0,-0.3
2024/02/12 04:50:00, 0.0,-0.2
2024/02/12 05:00:00, 0.0,-0.3
2024/02/12 05:10:00, 0.0,-0.2
2024/02/12 05:20:00, 0.0, 0.1
2024/02/12 05:30:00, 0.0,-0.5
2024/02/12 05:40:00, 0.0,-0.2
2024/02/12 05:50:00, 0.0,-0.1
2024/02/12 06:00:00, 0.0,-0.0
2024/02/12 06:10:00, 0.0,-0.1
2024/02/12 06:20:00, 0.0,-0.2
2024/02/12 06:30:00, 0.0,-0.0
2024/02/12 06:40:00, 0.0,-0.0
2024/02/12 06:50:00, 0.0,-0.1
2024/02/12 07:00:00, 0.0,-0.0
2024/02/12 07:10:00, 0.0, 0.1
2024/02/12 07:20:00, 0.0, 0.1
2024/02/12 07:30:00,---, 0.2
2024/02/12 07:40:00, 0.0,-0.1
2024/02/12 07:50:00,---, 0.1
2024/02/12 08:00:00, 0.0, 0.2
2024/02/12 08:10:00, 0.0, 0.8
2024/02/12 08:20:00, 0.0, 0.8
2024/02/12 08:30:00, 0.0, 1.1
2024/02/12 08:40:00, 0.0, 0.7
2024/02/12 08:50:00, 0.0, 0.6
2024/02/12 09:00:00,---, 0.7
2024/02/12 09:10:00, 0.0, 0.8
2024/02/12 09:20:00, 0.0, 0.9
2024/02/12 09:30:00, 0.0, 1.7
2024/02/12 09:40:00,12.2, 1.9
2024/02/12 09:50:00,12.1, 2.7
2024/02/12 10:00:00,11.9, 2.3
2024/02/12 10:10:00,---, 2.6
2024/02/12 10:20:00,12.2, 2.5
2024/02/12 10:30:00,12.5, 3.0
2024/02/12 10:40:00,12.3, 3.0
2024/02/12 10:50:00,12.2, 2.9
2024/02/12 11:00:00,12.2, 3.0
2024/02/12 11:10:00,12.3, 3.3
2024/02/12 11:20:00,12.3, 3.0
2024/02/12 11:30:00,12.2, 3.6
2024/02/12 11:40:00,12.4, 3.9
2024/02/12 11:50:00, 0.0, 3.9
2024/02/12 12:00:00,---, 4.5
2024/02/12 12:10:00,12.0, 4.3
2024/02/12 12:20:00,11.4, 3.4
2024/02/12 12:30:00,11.2, 3.1
2024/02/12 12:40:00,11.0, 3.9
2024/02/12 12:50:00,10.9, 3.7
2024/02/12 13:00:00,10.9, 3.9
2024/02/12 13:10:00,11.1, 4.7
2024/02/12 13:20:00,11.1, 4.7
2024/02/12 13:30:00,10.4, 4.1
2024/02/12 13:40:00,10.4, 5.3
2024/02/12 13:50:00, 9.9, 4.3
2024/02/12 14:00:00,10.0, 3.8
2024/02/12 14:10:00,10.1, 3.9
2024/02/12 14:20:00,10.1, 4.2
2024/02/12 14:30:00, 9.9, 4.3
2024/02/12 14:40:00, 9.7, 4.6
2024/02/12 14:50:00, 9.6, 4.2
2024/02/12 15:00:00, 9.5, 3.9
2024/02/12 15:10:00, 9.4, 3.5
2024/02/12 15:20:00, 9.1, 3.8
2024/02/12 15:30:00, 9.0, 3.3
2024/02/12 15:40:00, 8.7, 2.6
2024/02/12 15:50:00, 8.2, 2.3
2024/02/12 16:00:00, 8.0, 2.2
2024/02/12 16:10:00, 7.7, 1.9
2024/02/12 16:20:00, 0.0, 2.1
2024/02/12 16:30:00, 0.0, 1.9
2024/02/12 16:40:00, 0.0, 1.5
2024/02/12 16:50:00,---, 2.0
2024/02/12 17:00:00, 0.0, 1.8
2024/02/12 17:10:00, 7.4, 1.9
2024/02/12 17:20:00, 0.0, 1.9
2024/02/12 17:30:00, 7.6, 1.9
2024/02/12 17:40:00, 7.7, 1.9
2024/02/12 17:50:00, 7.7, 1.8
2024/02/12 18:00:00, 7.7, 1.8
2024/02/12 18:10:00, 7.9, 1.7
2024/02/12 18:20:00, 8.0, 1.7
2024/02/12 18:30:00, 7.9, 1.6
2024/02/12 18:40:00, 7.9, 1.6
2024/02/12 18:50:00, 7.8, 1.8
2024/02/12 19:00:00, 7.8, 1.6
2024/02/12 19:10:00, 7.8, 1.7
2024/02/12 19:20:00, 7.8, 1.7
2024/02/12 19:30:00, 7.9, 1.9
2024/02/12 19:40:00, 8.1, 1.9
2024/02/12 19:50:00, 7.9, 1.8
2024/02/12 20:00:00, 7.9, 1.6
2024/02/12 20:10:00, 7.8, 1.2
2024/02/12 20:20:00, 7.8, 1.7
2024/02/12 20:30:00, 7.9, 1.9
2024/02/12 20:40:00, 7.8, 1.6
2024/02/12 20:50:00, 7.9, 1.9
2024/02/12 21:00:00, 7.9, 2.2
2024/02/12 21:10:00, 7.9, 2.3
2024/02/12 21:20:00, 7.9, 2.1
2024/02/12 21:30:00, 8.0, 1.9
2024/02/12 21:40:00, 8.0, 2.1
2024/02/12 21:50:00, 7.8, 2.1
2024/02/12 22:00:00, 7.7, 2.1
2024/02/12 22:10:00, 7.7, 2.4
2024/02/12 22:20:00, 7.7, 2.1
2024/02/12 22:30:00, 7.7, 2.3
2024/02/12 22:40:00, 7.6, 2.4
2024/02/12 22:50:00, 7.6, 2.4
2024/02/12 23:00:00, 7.6, 2.2
2024/02/12 23:10:00, 7.5, 2.3
2024/02/12 23:20:00, 7.5, 2.2
2024/02/12 23:30:00, 7.5, 2.6
2024/02/12 23:40:00, 7.5, 2.8
2024/02/12 23:50:00, 7.6, 2.8
